User: anonymous   Login
Location: Unspecified
(0.0000°N, 0.0000°E)
Time: 13:01:07
(UTC+00:00)
Language:

GONETS M 12 (M22) - Orbit

View from above orbital plane
View from above orbital plane
View from above satellite
View from above satellite

Ground track
Ground track

The orbit data is extracted from the following two-line orbital elements,

1 40553U 15020B   18347.67995358 +.00000725 +00000-0 +51624-2 0  9994
2 40553 082.4883 300.0819 0013028 205.8271 154.2129 12.42889013168087
Epoch (UTC): 13 December 2018 16:19:07
Eccentricity: 0.0013028
inclination: 82.4883°
perigee height: 1484 km
apogee height: 1504 km
right ascension of ascending node: 300.0819°
argument of perigee: 205.8271°
revolutions per day: 12.42889013
mean anomaly at epoch: 154.2129°
orbit number at epoch: 16808

The dashed part of the orbit path shows where the satellite is in the earth's shadow,  

DLR